[Date Prev][Date Next][Thread Prev][Thread Next] - [Date Index][Thread Index][Author Index]
2 Line ISS Keps 6-28
- Subject: [sarex] 2 Line ISS Keps 6-28
- From: "Dave Larsen PhD" <doc@xxxxxxxxxxx>
- Date: Thu, 28 Jun 2001 03:50:55 -0700
ISS
1 25544U 98067A 01179.34571759 .00047753 00000-0 51210-3 0 1438
2 25544 51.5718 32.2498 0016572 216.3492 138.3493 15.63154363148815
----
Via the sarex mailing list at AMSAT.ORG courtesy of AMSAT-NA.
To unsubscribe, send "unsubscribe sarex" to Majordomo@amsat.org
AMSAT Home